| time (UTC) | temp C | wind direction | speed KPH | gust KPH | rain 1hr cm | rain 24hr cm | rain mn cm | humidity % | barometer mb |
| 20260505201055 | 16 | 140 | 3.2 | 11.3 | 0.00 | 0.00 | 0.00 | 46 | 1002.9 |
| 20260505200512 | 16 | 157 | 3.2 | 9.7 | 0.00 | 0.00 | 0.00 | 46 | 1002.8 |
| 20260505200027 | 16 | 122 | 1.6 | 6.4 | 0.00 | 0.00 | 0.00 | 46 | 1002.9 |
| 20260505195535 | 15 | 133 | 0.0 | 8.0 | 0.00 | 0.00 | 0.00 | 47 | 1002.9 |
| 20260505195049 | 15 | 128 | 0.0 | 11.3 | 0.00 | 0.00 | 0.00 | 48 | 1002.9 |
| 20260505194603 | 15 | 123 | 3.2 | 11.3 | 0.00 | 0.00 | 0.00 | 49 | 1003.2 |
| 20260505194503 | 15 | 151 | 4.8 | 12.9 | 0.00 | 0.00 | 0.00 | 49 | 1003.2 |
| 20260505194020 | 15 | 124 | 3.2 | 12.9 | 0.00 | 0.00 | 0.00 | 49 | 1003.2 |
| 20260505193527 | 15 | 120 | 1.6 | 12.9 | 0.00 | 0.00 | 0.00 | 48 | 1003.3 |
| 20260505193048 | 15 | 133 | 4.8 | 14.5 | 0.00 | 0.00 | 0.00 | 50 | 1003.3 |
| 20260505192553 | 14 | 146 | 6.4 | 14.5 | 0.00 | 0.00 | 0.00 | 51 | 1003.2 |
| 20260505192009 | 13 | 122 | 6.4 | 11.3 | 0.00 | 0.00 | 0.00 | 50 | 1003.2 |
| 20260505191520 | 13 | 122 | 6.4 | 11.3 | 0.00 | 0.00 | 0.00 | 50 | 1003.2 |
| 20260505191033 | 13 | 117 | 1.6 | 8.0 | 0.00 | 0.00 | 0.00 | 50 | 1003.3 |
| 20260505190543 | 13 | 131 | 3.2 | 8.0 | 0.00 | 0.00 | 0.00 | 50 | 1003.3 |
| 20260505190113 | 13 | 126 | 3.2 | 8.0 | 0.00 | 0.00 | 0.00 | 50 | 1003.3 |
| 20260505185513 | 13 | 124 | 1.6 | 9.7 | 0.00 | 0.00 | 0.00 | 51 | 1003.3 |
| 20260505185023 | 13 | 139 | 1.6 | 9.7 | 0.00 | 0.00 | 0.00 | 51 | 1003.3 |
| 20260505184534 | 13 | 127 | 1.6 | 6.4 | 0.00 | 0.00 | 0.00 | 51 | 1003.3 |
| 20260505184047 | 13 | 126 | 0.0 | 6.4 | 0.00 | 0.00 | 0.00 | 53 | 1003.3 |
| 20260505183557 | 13 | 104 | 1.6 | 8.0 | 0.00 | 0.00 | 0.00 | 53 | 1003.4 |
| 20260505183017 | 13 | 130 | 3.2 | 8.0 | 0.00 | 0.00 | 0.00 | 53 | 1003.3 |
| 20260505182523 | 13 | 123 | 0.0 | 8.0 | 0.00 | 0.00 | 0.00 | 53 | 1003.2 |
| 20260505182037 | 13 | 77 | 1.6 | 4.8 | 0.00 | 0.00 | 0.00 | 55 | 1003.2 |
| 20260505181548 | 13 | 131 | 0.0 | 8.0 | 0.00 | 0.00 | 0.00 | 58 | 1003.5 |
| 20260505181006 | 13 | 136 | 3.2 | 9.7 | 0.00 | 0.00 | 0.00 | 57 | 1003.5 |
| 20260505180515 | 14 | 139 | 0.0 | 6.4 | 0.00 | 0.00 | 0.00 | 61 | 1003.5 |
| 20260505180036 | 13 | 130 | 0.0 | 9.7 | 0.00 | 0.00 | 0.00 | 58 | 1003.3 |
| 20260505175539 | 14 | 115 | 3.2 | 9.7 | 0.00 | 0.00 | 0.00 | 54 | 1003.4 |
| 20260505175053 | 14 | 170 | 1.6 | 8.0 | 0.00 | 0.00 | 0.00 | 49 | 1003.3 |
| 20260505174510 | 14 | 129 | 1.6 | 8.0 | 0.00 | 0.00 | 0.00 | 45 | 1003.2 |
| 20260505174020 | 14 | 124 | 0.0 | 11.3 | 0.00 | 0.00 | 0.00 | 46 | 1003.0 |
| 20260505173534 | 14 | 122 | 1.6 | 11.3 | 0.00 | 0.00 | 0.00 | 45 | 1003.1 |
| 20260505173045 | 15 | 130 | 1.6 | 9.7 | 0.00 | 0.00 | 0.00 | 45 | 1003.0 |
| 20260505172557 | 15 | 122 | 1.6 | 6.4 | 0.00 | 0.00 | 0.00 | 45 | 1002.9 |
| 20260505172016 | 15 | 128 | 0.0 | 8.0 | 0.00 | 0.00 | 0.00 | 45 | 1002.9 |
| 20260505171530 | 14 | 143 | 1.6 | 8.0 | 0.00 | 0.00 | 0.00 | 48 | 1003.0 |
| 20260505171035 | 13 | 150 | 0.0 | 4.8 | 0.00 | 0.00 | 0.00 | 47 | 1003.1 |
| 20260505170554 | 13 | 153 | 0.0 | 8.0 | 0.00 | 0.00 | 0.00 | 47 | 1003.2 |
| 20260505170007 | 13 | 140 | 3.2 | 8.0 | 0.00 | 0.00 | 0.00 | 47 | 1003.2 |
| 20260505165517 | 13 | 143 | 1.6 | 11.3 | 0.00 | 0.00 | 0.00 | 48 | 1003.4 |
| 20260505165029 | 13 | 141 | 3.2 | 11.3 | 0.00 | 0.00 | 0.00 | 46 | 1003.4 |
| 20260505164543 | 13 | 135 | 0.0 | 11.3 | 0.00 | 0.00 | 0.00 | 47 | 1003.1 |
| 20260505164054 | 13 | 164 | 3.2 | 11.3 | 0.00 | 0.00 | 0.00 | 47 | 1003.0 |
| 20260505163508 | 13 | 150 | 0.0 | 14.5 | 0.00 | 0.00 | 0.00 | 48 | 1003.1 |
| 20260505163023 | 13 | 153 | 3.2 | 14.5 | 0.00 | 0.00 | 0.00 | 47 | 1003.2 |
| 20260505162533 | 13 | 143 | 4.8 | 9.7 | 0.00 | 0.00 | 0.00 | 48 | 1003.1 |
| 20260505162043 | 12 | 150 | 3.2 | 11.3 | 0.00 | 0.00 | 0.00 | 49 | 1003.0 |
| 20260505161557 | 12 | 151 | 3.2 | 11.3 | 0.00 | 0.00 | 0.00 | 51 | 1003.1 |
| 20260505161011 | 12 | 160 | 3.2 | 12.9 | 0.00 | 0.00 | 0.00 | 53 | 1003.2 |
| 20260505160523 | 11 | 151 | 4.8 | 12.9 | 0.00 | 0.00 | 0.00 | 55 | 1003.2 |
| 20260505153105 | 11 | 158 | 9.7 | 17.7 | 0.00 | 0.00 | 0.00 | 56 | 1003.6 |
| 20260505152504 | 11 | 158 | 8.0 | 20.9 | 0.00 | 0.00 | 0.00 | 57 | 1003.7 |
| 20260505152024 | 11 | 167 | 6.4 | 20.9 | 0.00 | 0.00 | 0.00 | 58 | 1003.8 |
| 20260505151527 | 11 | 132 | 11.3 | 19.3 | 0.00 | 0.00 | 0.00 | 59 | 1003.8 |
| 20260505151042 | 11 | 168 | 8.0 | 19.3 | 0.00 | 0.00 | 0.00 | 62 | 1003.8 |
| 20260505150553 | 11 | 128 | 8.0 | 16.1 | 0.00 | 0.00 | 0.00 | 64 | 1003.8 |
| 20260505140531 | 11 | 165 | 1.6 | 11.3 | 0.00 | 0.00 | 0.00 | 58 | 1004.0 |
| 20260505125037 | 13 | 134 | 0.0 | 4.8 | 0.00 | 0.00 | 0.00 | 40 | 1003.0 |
| 20260505124559 | 13 | 124 | 0.0 | 6.4 | 0.00 | 0.00 | 0.00 | 41 | 1002.9 |
| 20260505124003 | 13 | 124 | 1.6 | 6.4 | 0.00 | 0.00 | 0.00 | 41 | 1002.9 |
| 20260505123517 | 13 | 131 | 0.0 | 4.8 | 0.00 | 0.00 | 0.00 | 40 | 1003.0 |
| 20260505123044 | 13 | 131 | 0.0 | 6.4 | 0.00 | 0.00 | 0.00 | 40 | 1003.2 |
| 20260505122541 | 13 | 125 | 0.0 | 6.4 | 0.00 | 0.00 | 0.00 | 40 | 1003.1 |
| 20260505122055 | 13 | 121 | 0.0 | 6.4 | 0.00 | 0.00 | 0.00 | 39 | 1003.1 |
| 20260505121513 | 13 | 133 | 1.6 | 6.4 | 0.00 | 0.00 | 0.00 | 39 | 1003.1 |
| 20260505121023 | 13 | 122 | 1.6 | 8.0 | 0.00 | 0.00 | 0.00 | 39 | 1003.2 |
| 20260505120537 | 13 | 132 | 1.6 | 8.0 | 0.00 | 0.00 | 0.00 | 39 | 1003.3 |
| 20260505120052 | 13 | 123 | 1.6 | 8.0 | 0.00 | 0.00 | 0.00 | 39 | 1003.3 |
| 20260505115505 | 13 | 128 | 1.6 | 8.0 | 0.00 | 0.00 | 0.00 | 39 | 1003.1 |
| 20260505115017 | 13 | 129 | 1.6 | 6.4 | 0.00 | 0.00 | 0.00 | 39 | 1003.0 |
| 20260505114536 | 13 | 126 | 1.6 | 8.0 | 0.00 | 0.00 | 0.00 | 39 | 1003.2 |
| 20260505114042 | 13 | 131 | 1.6 | 8.0 | 0.00 | 0.00 | 0.00 | 39 | 1003.1 |
| 20260505113555 | 13 | 131 | 1.6 | 6.4 | 0.00 | 0.00 | 0.00 | 39 | 1003.0 |
| 20260505113009 | 13 | 142 | 1.6 | 9.7 | 0.00 | 0.00 | 0.00 | 39 | 1003.0 |
| 20260505112521 | 13 | 119 | 1.6 | 9.7 | 0.00 | 0.00 | 0.00 | 39 | 1003.0 |
| 20260505112035 | 13 | 91 | 3.2 | 9.7 | 0.00 | 0.00 | 0.00 | 38 | 1003.0 |
| 20260505111545 | 13 | 115 | 3.2 | 8.0 | 0.00 | 0.00 | 0.00 | 38 | 1003.0 |
| 20260505111059 | 13 | 126 | 1.6 | 9.7 | 0.00 | 0.00 | 0.00 | 38 | 1002.8 |
| 20260505111001 | 13 | 127 | 1.6 | 9.7 | 0.00 | 0.00 | 0.00 | 38 | 1002.8 |
| 20260505110511 | 13 | 131 | 1.6 | 9.7 | 0.00 | 0.00 | 0.00 | 37 | 1002.9 |
| 20260505102004 | 13 | 124 | 3.2 | 6.4 | 0.00 | 0.00 | 0.00 | 36 | 1003.4 |
| 20260505101517 | 13 | 115 | 0.0 | 4.8 | 0.00 | 0.00 | 0.00 | 36 | 1003.3 |
| 20260505101030 | 13 | 111 | 0.0 | 3.2 | 0.00 | 0.00 | 0.00 | 36 | 1003.3 |
| 20260505100541 | 13 | 118 | 0.0 | 3.2 | 0.00 | 0.00 | 0.00 | 36 | 1003.2 |
| 20260505100101 | 13 | 118 | 0.0 | 3.2 | 0.00 | 0.00 | 0.00 | 35 | 1003.1 |
| 20260505095511 | 13 | 118 | 0.0 | 6.4 | 0.00 | 0.00 | 0.00 | 35 | 1003.1 |
| 20260505095020 | 13 | 110 | 0.0 | 4.8 | 0.00 | 0.00 | 0.00 | 35 | 1003.1 |
| 20260505094535 | 13 | 117 | 1.6 | 4.8 | 0.00 | 0.00 | 0.00 | 35 | 1003.0 |
| 20260505094044 | 13 | 117 | 1.6 | 4.8 | 0.00 | 0.00 | 0.00 | 35 | 1003.2 |
| 20260505093602 | 13 | 125 | 1.6 | 4.8 | 0.00 | 0.00 | 0.00 | 36 | 1003.0 |
| 20260505093504 | 13 | 118 | 1.6 | 4.8 | 0.00 | 0.00 | 0.00 | 36 | 1003.0 |
| 20260505093011 | 13 | 126 | 0.0 | 1.6 | 0.00 | 0.00 | 0.00 | 36 | 1003.0 |
| 20260505092525 | 13 | 127 | 0.0 | 1.6 | 0.00 | 0.00 | 0.00 | 36 | 1003.0 |
| 20260505092035 | 13 | 126 | 0.0 | 1.6 | 0.00 | 0.00 | 0.00 | 36 | 1003.2 |
| 20260505091550 | 13 | 126 | 0.0 | 1.6 | 0.00 | 0.00 | 0.00 | 36 | 1003.2 |
| 20260505091058 | 13 | 126 | 0.0 | 1.6 | 0.00 | 0.00 | 0.00 | 36 | 1003.3 |
| 20260505090515 | 13 | 126 | 0.0 | 1.6 | 0.00 | 0.00 | 0.00 | 36 | 1003.2 |
| 20260505090039 | 13 | 126 | 0.0 | 1.6 | 0.00 | 0.00 | 0.00 | 35 | 1003.2 |
| 20260505085536 | 14 | 126 | 0.0 | 1.6 | 0.00 | 0.00 | 0.00 | 34 | 1003.4 |
| 20260505085049 | 14 | 126 | 0.0 | 1.6 | 0.00 | 0.00 | 0.00 | 34 | 1003.4 |
| 20260505084503 | 14 | 126 | 0.0 | 3.2 | 0.00 | 0.00 | 0.00 | 33 | 1003.5 |
| 20260505084013 | 15 | 126 | 0.0 | 4.8 | 0.00 | 0.00 | 0.00 | 33 | 1003.5 |
| 20260505083526 | 15 | 126 | 0.0 | 6.4 | 0.00 | 0.00 | 0.00 | 33 | 1003.6 |
| 20260505083036 | 15 | 126 | 0.0 | 6.4 | 0.00 | 0.00 | 0.00 | 33 | 1003.6 |
| 20260505082550 | 15 | 129 | 1.6 | 8.0 | 0.00 | 0.00 | 0.00 | 33 | 1003.6 |
| 20260505082100 | 15 | 134 | 3.2 | 8.0 | 0.00 | 0.00 | 0.00 | 32 | 1003.6 |
| 20260505082003 | 15 | 131 | 3.2 | 8.0 | 0.00 | 0.00 | 0.00 | 32 | 1003.7 |
| 20260505081524 | 15 | 121 | 3.2 | 11.3 | 0.00 | 0.00 | 0.00 | 32 | 1003.6 |
| 20260505081027 | 15 | 144 | 3.2 | 11.3 | 0.00 | 0.00 | 0.00 | 32 | 1003.7 |
| 20260505080541 | 15 | 127 | 1.6 | 6.4 | 0.00 | 0.00 | 0.00 | 31 | 1003.8 |
| 20260505080055 | 15 | 130 | 1.6 | 8.0 | 0.00 | 0.00 | 0.00 | 31 | 1004.0 |
| 20260505075509 | 15 | 114 | 3.2 | 8.0 | 0.00 | 0.00 | 0.00 | 31 | 1004.0 |
| 20260505075021 | 15 | 123 | 1.6 | 9.7 | 0.00 | 0.00 | 0.00 | 31 | 1004.2 |
| 20260505074532 | 15 | 129 | 4.8 | 9.7 | 0.00 | 0.00 | 0.00 | 31 | 1004.3 |
| 20260505074053 | 15 | 127 | 4.8 | 9.7 | 0.00 | 0.00 | 0.00 | 31 | 1004.1 |
| 20260505073557 | 15 | 131 | 0.0 | 6.4 | 0.00 | 0.00 | 0.00 | 31 | 1004.2 |
| 20260505073016 | 15 | 125 | 0.0 | 6.4 | 0.00 | 0.00 | 0.00 | 31 | 1004.0 |
| 20260505072523 | 15 | 125 | 1.6 | 8.0 | 0.00 | 0.00 | 0.00 | 31 | 1003.9 |
| 20260505072036 | 15 | 115 | 1.6 | 8.0 | 0.00 | 0.00 | 0.00 | 31 | 1003.9 |
| 20260505071547 | 15 | 121 | 0.0 | 6.4 | 0.00 | 0.00 | 0.00 | 31 | 1003.8 |
| 20260505071102 | 15 | 121 | 1.6 | 11.3 | 0.00 | 0.00 | 0.00 | 31 | 1003.9 |
| 20260505071002 | 15 | 121 | 1.6 | 11.3 | 0.00 | 0.00 | 0.00 | 31 | 1003.9 |
| 20260505070514 | 16 | 113 | 3.2 | 11.3 | 0.00 | 0.00 | 0.00 | 31 | 1003.9 |
| 20260505070026 | 16 | 114 | 1.6 | 11.3 | 0.00 | 0.00 | 0.00 | 30 | 1003.8 |
| 20260505065536 | 16 | 109 | 3.2 | 9.7 | 0.00 | 0.00 | 0.00 | 30 | 1003.7 |
| 20260505065050 | 16 | 102 | 3.2 | 11.3 | 0.00 | 0.00 | 0.00 | 29 | 1003.6 |
| 20260505064600 | 16 | 122 | 4.8 | 12.9 | 0.00 | 0.00 | 0.00 | 29 | 1003.4 |
| 20260505064502 | 16 | 110 | 4.8 | 12.9 | 0.00 | 0.00 | 0.00 | 29 | 1003.5 |
| 20260505064016 | 16 | 100 | 4.8 | 16.1 | 0.00 | 0.00 | 0.00 | 28 | 1003.5 |
| 20260505063528 | 16 | 100 | 6.4 | 16.1 | 0.00 | 0.00 | 0.00 | 28 | 1003.5 |
| 20260505063042 | 16 | 107 | 3.2 | 14.5 | 0.00 | 0.00 | 0.00 | 28 | 1003.4 |
| 20260505062551 | 16 | 123 | 4.8 | 14.5 | 0.00 | 0.00 | 0.00 | 28 | 1003.4 |
| 20260505062006 | 16 | 102 | 3.2 | 14.5 | 0.00 | 0.00 | 0.00 | 27 | 1003.4 |
| 20260505061518 | 16 | 104 | 6.4 | 14.5 | 0.00 | 0.00 | 0.00 | 27 | 1003.5 |
| 20260505061030 | 17 | 105 | 4.8 | 12.9 | 0.00 | 0.00 | 0.00 | 27 | 1003.4 |
| 20260505060540 | 17 | 92 | 3.2 | 12.9 | 0.00 | 0.00 | 0.00 | 26 | 1003.5 |
| 20260505060036 | 17 | 111 | 4.8 | 12.9 | 0.00 | 0.00 | 0.00 | 26 | 1003.5 |
| 20260505055542 | 17 | 96 | 4.8 | 16.1 | 0.00 | 0.00 | 0.00 | 26 | 1003.4 |
| 20260505055055 | 17 | 86 | 6.4 | 16.1 | 0.00 | 0.00 | 0.00 | 26 | 1003.3 |
| 20260505054510 | 17 | 143 | 4.8 | 17.7 | 0.00 | 0.00 | 0.00 | 26 | 1003.4 |
| 20260505054017 | 17 | 122 | 3.2 | 11.3 | 0.00 | 0.00 | 0.00 | 26 | 1003.4 |
| 20260505053532 | 17 | 94 | 3.2 | 14.5 | 0.00 | 0.00 | 0.00 | 25 | 1003.4 |
| 20260505053042 | 17 | 112 | 4.8 | 14.5 | 0.00 | 0.00 | 0.00 | 25 | 1003.3 |
| 20260505052559 | 17 | 93 | 3.2 | 9.7 | 0.00 | 0.00 | 0.00 | 25 | 1003.3 |
| 20260505052012 | 17 | 111 | 3.2 | 8.0 | 0.00 | 0.00 | 0.00 | 25 | 1003.2 |
| 20260505051524 | 17 | 129 | 1.6 | 8.0 | 0.00 | 0.00 | 0.00 | 25 | 1003.2 |
| 20260505051039 | 17 | 122 | 1.6 | 11.3 | 0.00 | 0.00 | 0.00 | 24 | 1003.2 |
| 20260505050548 | 17 | 134 | 3.2 | 11.3 | 0.00 | 0.00 | 0.00 | 24 | 1003.0 |
| 20260505041605 | 18 | 118 | 0.0 | 3.2 | 0.00 | 0.00 | 0.00 | 25 | 1002.9 |
| 20260505041010 | 18 | 118 | 0.0 | 3.2 | 0.00 | 0.00 | 0.00 | 25 | 1002.8 |
| 20260505040520 | 18 | 116 | 0.0 | 4.8 | 0.00 | 0.00 | 0.00 | 24 | 1002.7 |
| 20260505040037 | 18 | 117 | 0.0 | 4.8 | 0.00 | 0.00 | 0.00 | 24 | 1002.7 |
| 20260505035544 | 18 | 110 | 1.6 | 6.4 | 0.00 | 0.00 | 0.00 | 24 | 1002.7 |
| 20260505035100 | 18 | 120 | 0.0 | 8.0 | 0.00 | 0.00 | 0.00 | 24 | 1002.7 |
| 20260505035002 | 18 | 120 | 0.0 | 8.0 | 0.00 | 0.00 | 0.00 | 24 | 1002.7 |
| 20260505034513 | 18 | 131 | 0.0 | 4.8 | 0.00 | 0.00 | 0.00 | 24 | 1002.7 |
| 20260505034028 | 18 | 122 | 0.0 | 6.4 | 0.00 | 0.00 | 0.00 | 24 | 1002.7 |
| 20260505033536 | 18 | 119 | 0.0 | 6.4 | 0.00 | 0.00 | 0.00 | 24 | 1002.5 |
| 20260505033051 | 18 | 128 | 1.6 | 6.4 | 0.00 | 0.00 | 0.00 | 23 | 1002.6 |
| 20260505032600 | 18 | 112 | 1.6 | 8.0 | 0.00 | 0.00 | 0.00 | 23 | 1002.4 |
| 20260505032507 | 19 | 108 | 1.6 | 8.0 | 0.00 | 0.00 | 0.00 | 23 | 1002.4 |
| 20260505032016 | 19 | 128 | 0.0 | 8.0 | 0.00 | 0.00 | 0.00 | 23 | 1002.3 |
| 20260505031540 | 19 | 127 | 3.2 | 8.0 | 0.00 | 0.00 | 0.00 | 22 | 1002.3 |
| 20260505031040 | 19 | 132 | 1.6 | 6.4 | 0.00 | 0.00 | 0.00 | 22 | 1002.3 |
| 20260505030554 | 19 | 126 | 1.6 | 6.4 | 0.00 | 0.00 | 0.00 | 22 | 1002.2 |
| 20260505030008 | 19 | 143 | 1.6 | 8.0 | 0.00 | 0.00 | 0.00 | 22 | 1002.1 |
| 20260505025520 | 20 | 125 | 1.6 | 12.9 | 0.00 | 0.00 | 0.00 | 22 | 1002.1 |
| 20260505025030 | 20 | 122 | 4.8 | 20.9 | 0.00 | 0.00 | 0.00 | 21 | 1002.1 |
| 20260505024546 | 20 | 116 | 6.4 | 20.9 | 0.00 | 0.00 | 0.00 | 21 | 1002.0 |
| 20260505024056 | 20 | 120 | 9.7 | 19.3 | 0.00 | 0.00 | 0.00 | 21 | 1001.9 |
| 20260505023512 | 20 | 125 | 6.4 | 17.7 | 0.00 | 0.00 | 0.00 | 20 | 1001.8 |
| 20260505023028 | 20 | 101 | 9.7 | 19.3 | 0.00 | 0.00 | 0.00 | 20 | 1001.8 |
| 20260505022534 | 20 | 116 | 8.0 | 19.3 | 0.00 | 0.00 | 0.00 | 20 | 1001.7 |
| 20260505022044 | 20 | 157 | 8.0 | 17.7 | 0.00 | 0.00 | 0.00 | 20 | 1001.6 |
| 20260505021558 | 20 | 122 | 4.8 | 19.3 | 0.00 | 0.00 | 0.00 | 20 | 1001.6 |
| 20260505021010 | 20 | 115 | 6.4 | 19.3 | 0.00 | 0.00 | 0.00 | 19 | 1001.6 |
| 20260505020524 | 20 | 156 | 4.8 | 16.1 | 0.00 | 0.00 | 0.00 | 19 | 1001.5 |
| 20260505020038 | 21 | 96 | 8.0 | 14.5 | 0.00 | 0.00 | 0.00 | 19 | 1001.5 |
| 20260505015550 | 21 | 110 | 4.8 | 17.7 | 0.00 | 0.00 | 0.00 | 19 | 1001.4 |
| 20260505015100 | 21 | 99 | 8.0 | 17.7 | 0.00 | 0.00 | 0.00 | 19 | 1001.3 |
| 20260505015002 | 21 | 133 | 8.0 | 16.1 | 0.00 | 0.00 | 0.00 | 19 | 1001.3 |
| 20260505014518 | 21 | 92 | 6.4 | 19.3 | 0.00 | 0.00 | 0.00 | 19 | 1001.1 |
| 20260505014027 | 21 | 127 | 6.4 | 19.3 | 0.00 | 0.00 | 0.00 | 19 | 1001.3 |
| 20260505013542 | 21 | 105 | 4.8 | 19.3 | 0.00 | 0.00 | 0.00 | 19 | 1001.1 |
| 20260505013052 | 21 | 124 | 4.8 | 20.9 | 0.00 | 0.00 | 0.00 | 19 | 1000.9 |
| 20260505012514 | 21 | 139 | 8.0 | 20.9 | 0.00 | 0.00 | 0.00 | 19 | 1000.9 |
| 20260505012025 | 21 | 99 | 3.2 | 14.5 | 0.00 | 0.00 | 0.00 | 19 | 1000.8 |
| 20260505011533 | 21 | 126 | 3.2 | 16.1 | 0.00 | 0.00 | 0.00 | 19 | 1000.7 |
| 20260505011047 | 21 | 136 | 4.8 | 16.1 | 0.00 | 0.00 | 0.00 | 19 | 1000.7 |
| 20260505010555 | 21 | 124 | 6.4 | 17.7 | 0.00 | 0.00 | 0.00 | 19 | 1000.8 |
| 20260505010012 | 22 | 116 | 8.0 | 17.7 | 0.00 | 0.00 | 0.00 | 18 | 1000.8 |
| 20260505005522 | 22 | 126 | 4.8 | 14.5 | 0.00 | 0.00 | 0.00 | 18 | 1000.8 |
| 20260505005036 | 22 | 127 | 8.0 | 19.3 | 0.00 | 0.00 | 0.00 | 18 | 1000.8 |
| 20260505004548 | 22 | 124 | 8.0 | 19.3 | 0.00 | 0.00 | 0.00 | 18 | 1000.8 |
| 20260505004004 | 22 | 115 | 3.2 | 19.3 | 0.00 | 0.00 | 0.00 | 18 | 1000.8 |
| 20260505003513 | 22 | 136 | 8.0 | 19.3 | 0.00 | 0.00 | 0.00 | 17 | 1000.8 |
| 20260505003027 | 22 | 121 | 6.4 | 19.3 | 0.00 | 0.00 | 0.00 | 17 | 1000.8 |
| 20260505002544 | 22 | 89 | 6.4 | 17.7 | 0.00 | 0.00 | 0.00 | 17 | 1000.8 |
| 20260505002054 | 22 | 116 | 8.0 | 17.7 | 0.00 | 0.00 | 0.00 | 16 | 1000.9 |
| 20260505001506 | 22 | 122 | 9.7 | 20.9 | 0.00 | 0.00 | 0.00 | 16 | 1001.0 |
| 20260505001020 | 22 | 125 | 9.7 | 20.9 | 0.00 | 0.00 | 0.00 | 16 | 1000.9 |
| 20260505000532 | 22 | 45 | 11.3 | 19.3 | 0.00 | 0.00 | 0.00 | 16 | 1000.9 |
| 20260505000101 | 22 | 115 | 6.4 | 20.9 | 0.00 | 0.00 | 0.00 | 16 | 1000.9 |
| 20260504235552 | 22 | 94 | 9.7 | 19.3 | 0.00 | 0.00 | 0.00 | 15 | 1000.8 |
| 20260504235008 | 22 | 121 | 9.7 | 19.3 | 0.00 | 0.00 | 0.00 | 15 | 1000.9 |
| 20260504234518 | 22 | 127 | 6.4 | 19.3 | 0.00 | 0.00 | 0.00 | 15 | 1000.9 |
| 20260504234032 | 22 | 148 | 6.4 | 19.3 | 0.00 | 0.00 | 0.00 | 15 | 1001.1 |
| 20260504233544 | 22 | 124 | 9.7 | 19.3 | 0.00 | 0.00 | 0.00 | 15 | 1001.1 |
| 20260504233107 | 22 | 116 | 8.0 | 20.9 | 0.00 | 0.00 | 0.00 | 14 | 1001.1 |
| 20260504232516 | 22 | 115 | 8.0 | 20.9 | 0.00 | 0.00 | 0.00 | 14 | 1001.2 |
| 20260504232027 | 22 | 126 | 9.7 | 19.3 | 0.00 | 0.00 | 0.00 | 14 | 1001.1 |
| 20260504231540 | 22 | 100 | 8.0 | 19.3 | 0.00 | 0.00 | 0.00 | 14 | 1001.2 |
| 20260504231049 | 23 | 117 | 6.4 | 19.3 | 0.00 | 0.00 | 0.00 | 13 | 1001.2 |
| 20260504230506 | 23 | 120 | 8.0 | 19.3 | 0.00 | 0.00 | 0.00 | 13 | 1001.3 |
| 20260504230019 | 23 | 122 | 8.0 | 19.3 | 0.00 | 0.00 | 0.00 | 12 | 1001.2 |
| 20260504225532 | 23 | 94 | 6.4 | 19.3 | 0.00 | 0.00 | 0.00 | 12 | 1001.2 |
| 20260504225045 | 23 | 131 | 4.8 | 19.3 | 0.00 | 0.00 | 0.00 | 12 | 1001.3 |
| 20260504224609 | 23 | 128 | 6.4 | 19.3 | 0.00 | 0.00 | 0.00 | 12 | 1001.4 |
| 20260504224009 | 23 | 120 | 8.0 | 24.1 | 0.00 | 0.00 | 0.00 | 12 | 1001.4 |
| 20260504223525 | 23 | 111 | 9.7 | 29.0 | 0.00 | 0.00 | 0.00 | 12 | 1001.4 |
| 20260504223042 | 23 | 111 | 14.5 | 29.0 | 0.00 | 0.00 | 0.00 | 12 | 1001.5 |
| 20260504222550 | 23 | 41 | 8.0 | 24.1 | 0.00 | 0.00 | 0.00 | 12 | 1001.5 |
| 20260504222059 | 23 | 112 | 9.7 | 24.1 | 0.00 | 0.00 | 0.00 | 12 | 1001.8 |
| 20260504222001 | 23 | 77 | 9.7 | 19.3 | 0.00 | 0.00 | 0.00 | 12 | 1001.8 |
| 20260504221519 | 23 | 118 | 6.4 | 20.9 | 0.00 | 0.00 | 0.00 | 12 | 1001.8 |
| 20260504221025 | 23 | 127 | 11.3 | 24.1 | 0.00 | 0.00 | 0.00 | 12 | 1001.9 |
| 20260504220542 | 23 | 75 | 9.7 | 25.7 | 0.00 | 0.00 | 0.00 | 12 | 1002.0 |
| 20260504220050 | 23 | 73 | 9.7 | 25.7 | 0.00 | 0.00 | 0.00 | 12 | 1002.1 |
| 20260504215507 | 23 | 102 | 8.0 | 22.5 | 0.00 | 0.00 | 0.00 | 12 | 1002.0 |
| 20260504215017 | 23 | 63 | 8.0 | 22.5 | 0.00 | 0.00 | 0.00 | 12 | 1002.1 |
| 20260504214529 | 23 | 64 | 9.7 | 22.5 | 0.00 | 0.00 | 0.00 | 12 | 1002.2 |
| 20260504214039 | 23 | 85 | 9.7 | 22.5 | 0.00 | 0.00 | 0.00 | 12 | 1002.3 |
| 20260504213553 | 23 | 120 | 8.0 | 32.2 | 0.00 | 0.00 | 0.00 | 12 | 1002.3 |
| 20260504213031 | 23 | 79 | 9.7 | 25.7 | 0.00 | 0.00 | 0.00 | 11 | 1002.4 |
| 20260504212520 | 24 | 70 | 11.3 | 19.3 | 0.00 | 0.00 | 0.00 | 12 | 1002.4 |
| 20260504212035 | 23 | 104 | 9.7 | 35.4 | 0.00 | 0.00 | 0.00 | 12 | 1002.4 |
| 20260504211545 | 24 | 94 | 16.1 | 35.4 | 0.00 | 0.00 | 0.00 | 12 | 1002.6 |
| 20260504211101 | 24 | 115 | 4.8 | 22.5 | 0.00 | 0.00 | 0.00 | 12 | 1002.5 |
| 20260504211001 | 24 | 106 | 8.0 | 22.5 | 0.00 | 0.00 | 0.00 | 12 | 1002.7 |
| 20260504210512 | 24 | 101 | 11.3 | 27.4 | 0.00 | 0.00 | 0.00 | 12 | 1002.7 |
| 20260504210027 | 24 | 67 | 11.3 | 27.4 | 0.00 | 0.00 | 0.00 | 12 | 1002.9 |
| 20260504205536 | 23 | 90 | 12.9 | 25.7 | 0.00 | 0.00 | 0.00 | 12 | 1003.0 |
| 20260504205049 | 24 | 54 | 8.0 | 25.7 | 0.00 | 0.00 | 0.00 | 13 | 1003.1 |
| 20260504204504 | 24 | 88 | 6.4 | 20.9 | 0.00 | 0.00 | 0.00 | 14 | 1003.2 |
| 20260504204017 | 23 | 98 | 8.0 | 20.9 | 0.00 | 0.00 | 0.00 | 14 | 1003.3 |
| 20260504203529 | 23 | 101 | 6.4 | 25.7 | 0.00 | 0.00 | 0.00 | 14 | 1003.4 |
| 20260504203052 | 23 | 129 | 4.8 | 25.7 | 0.00 | 0.00 | 0.00 | 14 | 1003.6 |
| 20260504202554 | 24 | 101 | 9.7 | 17.7 | 0.00 | 0.00 | 0.00 | 14 | 1003.8 |
| 20260504202009 | 24 | 75 | 4.8 | 24.1 | 0.00 | 0.00 | 0.00 | 15 | 1003.9 |
| 20260504201525 | 23 | 107 | 11.3 | 24.1 | 0.00 | 0.00 | 0.00 | 15 | 1004.1 |